�������l�o���
Date,Time,MP-1(��Sv/h),MP-2(��Sv/h),MP-3(��Sv/h),MP-4(��Sv/h),MP-5(��Sv/h),MP-6(��Sv/h),MP-7(��Sv/h),MP-8(��Sv/h),����,����(m/s),���J
2023/12/08,00:00,0.511,0.770,0.480,0.968,0.693,0.311,0.561,0.526,��,1.7,��
2023/12/08,00:10,0.510,0.770,0.480,0.967,0.692,0.312,0.561,0.525,��쓌,1.1,��
2023/12/08,00:20,0.510,0.770,0.480,0.967,0.690,0.311,0.561,0.525,�k��,1.5,��
2023/12/08,00:30,0.510,0.773,0.481,0.966,0.691,0.313,0.562,0.524,�k,2.2,��
2023/12/08,00:40,0.509,0.770,0.480,0.966,0.691,0.313,0.561,0.525,�k�k��,0.9,��
2023/12/08,00:50,0.508,0.771,0.480,0.965,0.691,0.312,0.562,0.524,���k��,1.1,��
2023/12/08,01:00,0.510,0.772,0.480,0.969,0.692,0.311,0.562,0.523,�쐼,1.7,��
2023/12/08,01:10,0.509,0.771,0.481,0.965,0.695,0.310,0.562,0.525,��,4.1,��
2023/12/08,01:20,0.509,0.771,0.479,0.967,0.691,0.311,0.562,0.525,���쐼,5.8,��
2023/12/08,01:30,0.509,0.771,0.481,0.966,0.693,0.311,0.562,0.524,��,6.1,��
2023/12/08,01:40,0.510,0.774,0.481,0.968,0.692,0.312,0.563,0.525,���쐼,5.8,��
2023/12/08,01:50,0.510,0.771,0.481,0.967,0.692,0.311,0.563,0.524,���쐼,4.9,��
2023/12/08,02:00,0.510,0.773,0.479,0.967,0.693,0.310,0.562,0.526,���쐼,5.2,��
2023/12/08,02:10,0.507,0.773,0.481,0.968,0.691,0.310,0.560,0.524,��,5.9,��
2023/12/08,02:20,0.510,0.772,0.481,0.969,0.693,0.312,0.562,0.523,��,7.0,��
2023/12/08,02:30,0.510,0.773,0.480,0.967,0.691,0.312,0.561,0.523,���쐼,7.1,��
2023/12/08,02:40,0.511,0.773,0.479,0.967,0.693,0.313,0.562,0.524,��,6.3,��
2023/12/08,02:50,0.509,0.774,0.481,0.967,0.692,0.311,0.561,0.523,��,5.0,��
2023/12/08,03:00,0.508,0.771,0.480,0.968,0.694,0.312,0.563,0.524,��,5.4,��
2023/12/08,03:10,0.509,0.772,0.481,0.966,0.693,0.311,0.561,0.525,��,4.0,��
2023/12/08,03:20,0.509,0.771,0.480,0.969,0.692,0.311,0.561,0.525,��,3.4,��
2023/12/08,03:30,0.509,0.773,0.481,0.969,0.693,0.310,0.562,0.526,��,2.6,��
2023/12/08,03:40,0.510,0.772,0.480,0.967,0.693,0.310,0.561,0.524,���k��,1.5,��
2023/12/08,03:50,0.512,0.772,0.480,0.968,0.693,0.312,0.561,0.525,��쐼,0.9,��
2023/12/08,04:00,0.510,0.771,0.480,0.966,0.691,0.312,0.562,0.524,�쐼,1.7,��
2023/12/08,04:10,0.511,0.771,0.480,0.967,0.693,0.311,0.561,0.522,�쐼,1.7,��
2023/12/08,04:20,0.508,0.772,0.481,0.968,0.693,0.311,0.560,0.524,�쐼,3.2,��
2023/12/08,04:30,0.509,0.771,0.479,0.968,0.692,0.312,0.562,0.523,���쐼,4.2,��
2023/12/08,04:40,0.509,0.773,0.479,0.967,0.691,0.311,0.559,0.523,��,4.0,��
2023/12/08,04:50,0.509,0.772,0.480,0.968,0.694,0.311,0.560,0.524,���쐼,3.5,��
2023/12/08,05:00,0.510,0.772,0.479,0.969,0.692,0.311,0.562,0.525,���쐼,2.9,��
2023/12/08,05:10,0.510,0.770,0.481,0.968,0.693,0.311,0.560,0.524,��,2.3,��
2023/12/08,05:20,0.508,0.772,0.480,0.969,0.694,0.311,0.560,0.524,��,2.3,��
2023/12/08,05:30,0.508,0.770,0.481,0.969,0.692,0.313,0.561,0.522,��,1.2,��
2023/12/08,05:40,0.509,0.774,0.480,0.968,0.693,0.311,0.560,0.524,��쐼,1.7,��
2023/12/08,05:50,0.511,0.770,0.480,0.967,0.692,0.311,0.560,0.525,�쐼,1.1,��
2023/12/08,06:00,0.509,0.772,0.479,0.968,0.690,0.312,0.562,0.525,��,1.5,��
2023/12/08,06:10,0.509,0.771,0.479,0.968,0.693,0.311,0.561,0.525,-,CALM,��
2023/12/08,06:20,0.510,0.771,0.479,0.968,0.693,0.311,0.559,0.523,��,0.9,��
2023/12/08,06:30,0.510,0.772,0.479,0.966,0.694,0.312,0.559,0.524,��,3.0,��
2023/12/08,06:40,0.509,0.771,0.480,0.964,0.693,0.310,0.560,0.524,��,4.8,��
2023/12/08,06:50,0.509,0.773,0.480,0.968,0.693,0.312,0.560,0.524,��,5.4,��
2023/12/08,07:00,0.510,0.772,0.480,0.969,0.692,0.310,0.560,0.524,��,4.9,��
2023/12/08,07:10,0.510,0.772,0.480,0.969,0.691,0.311,0.559,0.523,��,3.6,��
2023/12/08,07:20,0.511,0.773,0.482,0.967,0.692,0.313,0.559,0.524,��,4.2,��
2023/12/08,07:30,0.509,0.772,0.480,0.967,0.692,0.311,0.561,0.524,��,3.7,��
2023/12/08,07:40,0.508,0.772,0.478,0.968,0.692,0.312,0.561,0.524,��,3.6,��
2023/12/08,07:50,0.511,0.769,0.479,0.969,0.693,0.312,0.560,0.525,��,2.6,��
2023/12/08,08:00,0.508,0.772,0.479,0.968,0.694,0.311,0.561,0.524,���k��,2.2,��
2023/12/08,08:10,0.510,0.774,0.479,0.969,0.693,0.311,0.560,0.524,���쐼,0.9,��
2023/12/08,08:20,0.510,0.772,0.479,0.968,0.693,0.312,0.562,0.525,���쐼,1.5,��
2023/12/08,08:30,0.511,0.771,0.480,0.969,0.693,0.310,0.562,0.525,���쐼,2.2,��
2023/12/08,08:40,0.511,0.772,0.479,0.969,0.693,0.313,0.561,0.526,���쐼,2.6,��
2023/12/08,08:50,0.510,0.774,0.479,0.968,0.692,0.311,0.561,0.525,���쐼,2.2,��
2023/12/08,09:00,0.511,0.774,0.480,0.968,0.694,0.311,0.562,0.525,���쐼,1.9,��
2023/12/08,09:10,0.511,0.779,0.480,0.970,0.692,0.312,0.563,0.526,���쐼,1.9,��
2023/12/08,09:20,0.509,0.779,0.481,0.966,0.693,0.311,0.561,0.525,�쐼,1.2,��
2023/12/08,09:30,0.510,0.775,0.480,0.967,0.692,0.311,0.560,0.524,��쐼,1.8,��
2023/12/08,09:40,0.511,0.773,0.482,0.970,0.692,0.313,0.562,0.525,��,1.9,��
2023/12/08,09:50,0.510,0.773,0.481,0.971,0.693,0.313,0.561,0.525,��쓌,4.0,��
2023/12/08,10:00,0.510,0.773,0.481,0.968,0.692,0.313,0.561,0.524,��쓌,3.6,��
2023/12/08,10:10,0.513,0.773,0.479,0.970,0.694,0.311,0.559,0.524,��쓌,2.0,��
2023/12/08,10:20,0.510,0.773,0.480,0.969,0.693,0.313,0.559,0.524,��쓌,2.3,��
2023/12/08,10:30,0.510,0.773,0.479,0.972,0.694,0.311,0.560,0.524,��쓌,2.3,��
2023/12/08,10:40,0.511,0.772,0.481,0.970,0.695,0.312,0.560,0.524,��쓌,3.6,��
2023/12/08,10:50,0.510,0.773,0.481,0.967,0.694,0.311,0.559,0.526,��쓌,2.9,��
2023/12/08,11:00,0.510,0.773,0.481,0.967,0.695,0.312,0.559,0.526,��,3.0,��
2023/12/08,11:10,0.511,0.773,0.481,0.970,0.695,0.313,0.560,0.527,��쓌,3.3,��
2023/12/08,11:20,0.511,0.774,0.483,0.969,0.694,0.311,0.559,0.526,��쓌,2.6,��
2023/12/08,11:30,0.513,0.775,0.480,0.970,0.697,0.312,0.560,0.527,��,1.5,��
2023/12/08,11:40,0.510,0.775,0.482,0.971,0.697,0.312,0.559,0.525,��,1.1,��
2023/12/08,11:50,0.511,0.775,0.482,0.969,0.696,0.314,0.560,0.526,���쐼,2.3,��
2023/12/08,12:00,0.511,0.775,0.481,0.970,0.695,0.311,0.562,0.527,���쐼,7.2,��
2023/12/08,12:10,0.511,0.775,0.481,0.969,0.696,0.312,0.561,0.526,���쐼,6.3,��
2023/12/08,12:20,0.510,0.776,0.483,0.971,0.697,0.313,0.561,0.525,���쐼,7.0,��
2023/12/08,12:30,0.511,0.777,0.481,0.970,0.695,0.313,0.562,0.526,���쐼,6.9,��
2023/12/08,12:40,0.510,0.775,0.481,0.971,0.695,0.314,0.562,0.523,���쐼,7.3,��
2023/12/08,12:50,0.510,0.775,0.482,0.971,0.696,0.314,0.563,0.523,���쐼,8.1,��
2023/12/08,13:00,0.510,0.775,0.481,0.970,0.695,0.313,0.562,0.524,���쐼,7.5,��
2023/12/08,13:10,0.510,0.775,0.480,0.970,0.694,0.314,0.561,0.523,���쐼,8.5,��
2023/12/08,13:20,0.512,0.778,0.480,0.971,0.694,0.313,0.562,0.523,��,9.2,��
2023/12/08,13:30,0.511,0.777,0.481,0.970,0.696,0.312,0.559,0.524,��,8.0,��
2023/12/08,13:40,0.509,0.775,0.482,0.972,0.698,0.312,0.561,0.523,���쐼,6.3,��
2023/12/08,13:50,0.511,0.776,0.481,0.972,0.696,0.311,0.561,0.524,��,6.2,��
2023/12/08,14:00,0.511,0.773,0.479,0.970,0.700,0.313,0.562,0.525,���쐼,7.1,��
2023/12/08,14:10,0.511,0.776,0.482,0.971,0.696,0.312,0.563,0.524,��,8.3,��
2023/12/08,14:20,0.511,0.774,0.481,0.972,0.698,0.311,0.563,0.524,��,8.0,��
2023/12/08,14:30,0.510,0.775,0.483,0.972,0.699,0.312,0.563,0.524,��,7.0,��
2023/12/08,14:40,0.511,0.773,0.482,0.973,0.698,0.314,0.561,0.524,��,7.7,��
2023/12/08,14:50,0.511,0.774,0.483,0.973,0.697,0.313,0.562,0.525,��,8.0,��
2023/12/08,15:00,0.510,0.775,0.482,0.975,0.696,0.314,0.562,0.525,��,7.1,��
2023/12/08,15:10,0.510,0.779,0.484,0.975,0.698,0.313,0.562,0.526,��,6.4,��
2023/12/08,15:20,0.509,0.778,0.483,0.973,0.697,0.312,0.563,0.527,���쐼,4.1,��
2023/12/08,15:30,0.511,0.778,0.484,0.973,0.695,0.312,0.561,0.528,���쐼,4.5,��
2023/12/08,15:40,0.509,0.778,0.483,0.974,0.696,0.313,0.563,0.527,��,4.2,��
2023/12/08,15:50,0.511,0.779,0.485,0.971,0.698,0.313,0.563,0.526,���쐼,5.8,��
2023/12/08,16:00,0.512,0.779,0.485,0.973,0.696,0.313,0.562,0.527,���쐼,6.6,��
2023/12/08,16:10,0.512,0.779,0.486,0.972,0.695,0.314,0.564,0.527,���쐼,6.8,��
2023/12/08,16:20,0.512,0.780,0.484,0.974,0.696,0.312,0.562,0.527,��,7.0,��
2023/12/08,16:30,0.514,0.778,0.484,0.972,0.697,0.312,0.562,0.527,��,4.1,��
2023/12/08,16:40,0.512,0.779,0.485,0.973,0.695,0.312,0.562,0.527,��,1.7,��
2023/12/08,16:50,0.513,0.778,0.484,0.974,0.699,0.313,0.562,0.524,-,CALM,��
2023/12/08,17:00,0.513,0.777,0.483,0.974,0.698,0.313,0.562,0.526,��쐼,0.8,��
2023/12/08,17:10,0.513,0.780,0.484,0.972,0.696,0.313,0.563,0.526,�쐼,1.7,��
2023/12/08,17:20,0.512,0.779,0.483,0.971,0.698,0.313,0.563,0.525,�쐼,3.0,��
2023/12/08,17:30,0.513,0.778,0.484,0.972,0.699,0.312,0.561,0.528,���쐼,2.6,��
2023/12/08,17:40,0.513,0.779,0.484,0.973,0.698,0.312,0.562,0.526,���쐼,2.9,��
2023/12/08,17:50,0.512,0.777,0.484,0.972,0.696,0.312,0.561,0.526,���쐼,2.5,��
2023/12/08,18:00,0.514,0.778,0.482,0.973,0.696,0.312,0.563,0.526,�쐼,2.3,��
2023/12/08,18:10,0.512,0.779,0.483,0.975,0.699,0.311,0.562,0.526,�쐼,2.8,��
2023/12/08,18:20,0.513,0.781,0.485,0.973,0.699,0.313,0.564,0.527,�쐼,3.0,��
2023/12/08,18:30,0.514,0.779,0.484,0.974,0.698,0.312,0.560,0.525,�쐼,3.2,��
2023/12/08,18:40,0.513,0.778,0.483,0.973,0.697,0.312,0.562,0.525,�쐼,3.5,��
2023/12/08,18:50,0.513,0.777,0.484,0.973,0.698,0.312,0.563,0.525,��쐼,3.9,��
2023/12/08,19:00,0.514,0.778,0.485,0.974,0.698,0.312,0.560,0.525,�쐼,4.3,��
2023/12/08,19:10,0.513,0.776,0.483,0.973,0.697,0.313,0.562,0.524,�쐼,4.4,��
2023/12/08,19:20,0.512,0.778,0.484,0.973,0.697,0.312,0.560,0.526,��쐼,4.4,��
2023/12/08,19:30,0.513,0.778,0.484,0.971,0.699,0.313,0.562,0.526,��쐼,4.4,��
2023/12/08,19:40,0.513,0.779,0.483,0.972,0.697,0.311,0.562,0.525,��쐼,4.5,��
2023/12/08,19:50,0.512,0.777,0.484,0.973,0.699,0.313,0.561,0.525,��쐼,4.8,��
2023/12/08,20:00,0.514,0.777,0.484,0.973,0.698,0.313,0.561,0.525,��쐼,4.5,��
2023/12/08,20:10,0.511,0.778,0.484,0.973,0.696,0.312,0.562,0.527,��쐼,4.1,��
2023/12/08,20:20,0.513,0.778,0.484,0.974,0.697,0.313,0.562,0.525,��쐼,2.2,��
2023/12/08,20:30,0.513,0.777,0.483,0.971,0.697,0.313,0.561,0.525,��,2.5,��
2023/12/08,20:40,0.511,0.778,0.483,0.972,0.700,0.312,0.562,0.525,��쐼,2.6,��
2023/12/08,20:50,0.513,0.778,0.485,0.973,0.698,0.313,0.560,0.526,��쐼,1.5,��
2023/12/08,21:00,0.513,0.778,0.483,0.972,0.697,0.312,0.561,0.525,��,1.1,��
2023/12/08,21:10,0.512,0.778,0.484,0.972,0.698,0.312,0.560,0.526,��,1.1,��
2023/12/08,21:20,0.513,0.779,0.483,0.972,0.698,0.312,0.561,0.526,��,0.9,��
2023/12/08,21:30,0.512,0.777,0.482,0.971,0.698,0.312,0.561,0.523,��,1.7,��
2023/12/08,21:40,0.511,0.776,0.483,0.973,0.699,0.313,0.559,0.524,��,1.1,��
2023/12/08,21:50,0.513,0.777,0.484,0.972,0.698,0.312,0.561,0.524,��쓌,1.2,��
2023/12/08,22:00,0.513,0.779,0.482,0.973,0.697,0.312,0.560,0.525,��,1.7,��
2023/12/08,22:10,0.512,0.777,0.483,0.973,0.697,0.313,0.561,0.525,��,1.2,��
2023/12/08,22:20,0.510,0.778,0.484,0.973,0.696,0.312,0.560,0.525,��,1.2,��
2023/12/08,22:30,0.512,0.777,0.485,0.974,0.698,0.312,0.561,0.526,��,2.8,��
2023/12/08,22:40,0.513,0.778,0.483,0.974,0.697,0.312,0.560,0.526,��,3.2,��
2023/12/08,22:50,0.513,0.777,0.484,0.972,0.697,0.313,0.562,0.524,��쐼,2.6,��
2023/12/08,23:00,0.512,0.777,0.484,0.973,0.697,0.312,0.562,0.525,�쐼,2.9,��
2023/12/08,23:10,0.513,0.776,0.483,0.973,0.698,0.313,0.561,0.525,��쐼,4.7,��
2023/12/08,23:20,0.512,0.779,0.484,0.971,0.698,0.313,0.561,0.524,��쐼,5.4,��
2023/12/08,23:30,0.512,0.779,0.483,0.972,0.697,0.312,0.561,0.525,��쐼,5.8,��
2023/12/08,23:40,0.511,0.778,0.483,0.973,0.697,0.314,0.560,0.525,��쐼,6.5,��
2023/12/08,23:50,0.513,0.777,0.483,0.971,0.698,0.312,0.561,0.525,��쐼,6.4,��
